User: anonymous   Login
Location: Meetinghouse Hill
(42.7686°N, 71.7752°W)
Time: 07:15:12
(UTC-05:00)
Language:

Iridium 34 - Orbit

View from above orbital plane
View from above orbital plane
View from above satellite
View from above satellite

Ground track
Ground track

The orbit data is extracted from the following two-line orbital elements,

1 24969U 97056E   15024.51069649  .00000338  00000-0  11349-3 0  1109
2 24969 086.3994 324.4044 0002211 098.3755 261.7692 14.34215941907165
Epoch (UTC): 24 January 2015 12:15:24
Eccentricity: 0.0002211
inclination: 86.3994°
perigee height: 776 km
apogee height: 779 km
right ascension of ascending node: 324.4044°
argument of perigee: 98.3755°
revolutions per day: 14.34215941
mean anomaly at epoch: 261.7692°
orbit number at epoch: 90716

The dashed part of the orbit path shows where the satellite is in the earth's shadow,  

DLR